Wind_Speed
21 20 20 20 20 20 20 19 19 19 18 18 17 17 16 16 15 15 14 14 13 13 12 12 13 14 14 14 13 12 11 10 9 8 8 8 8 8 8 8 8 8 8 9 9 9 10 10 11 11 11 12 13 14 14 15 15 14 14 14 14 12 9 7 5 5 5 4 4 4 4 4 5 4 4 3 2 2 4 4 5 5 5 5 5 5 5 5
21 20 20 20 19 19 20 20 20 20 20 19 19 18 18 17 16 16 16 15 14 14 13 14 14 15 14 13 12 11 10 9 8 8 8 8 8 8 8 8 8 8 8 8 9 9 9 10 10 11 11 12 13 13 14 13 14 14 14 14 12 10 8 7 6 7 7 5 4 4 4 4 4 4 4 4 3 3 3 4 6 6 6 5 5 5 5 5
20 20 20 19 19 19 20 20 21 21 20 20 20 20 19 18 18 17 17 16 15 15 15 15 15 15 15 13 12 11 10 9 8 8 8 8 8 8 8 8 7 7 7 7 8 8 9 9 9 10 10 11 12 13 13 12 12 12 12 12 11 9 8 7 8 8 7 6 5 5 4 4 4 4 4 3 3 4 5 5 6 7 7 6 6 5 5 5
19 19 19 19 19 19 19 20 20 20 20 20 20 20 20 19 19 18 18 17 16 16 16 16 16 16 15 14 12 11 10 9 9 9 8 8 8 8 8 7 7 6 7 7 7 8 8 8 8 9 9 10 11 11 11 11 10 10 11 10 10 9 8 8 8 9 8 7 6 5 5 4 4 5 5 4 3 5 6 6 6 6 6 6 6 6 5 5
17 17 17 17 18 18 18 18 19 19 19 20 20 20 20 20 20 19 19 18 17 17 17 17 17 16 15 14 12 11 10 9 9 9 8 8 9 8 8 7 6 6 7 7 7 8 8 8 8 8 8 9 10 10 10 10 9 9 9 9 9 9 8 8 8 8 8 8 7 6 6 5 6 6 6 5 4 5 7 6 5 6 6 6 6 6 6 6
17 18 18 18 17 17 17 17 18 18 19 19 20 20 20 20 20 20 19 19 18 18 18 18 18 17 15 14 12 11 10 8 8 9 8 8 8 7 7 6 6 6 7 7 7 8 8 8 8 7 8 9 9 9 9 9 9 9 9 8 8 8 7 8 8 8 8 8 7 7 6 7 8 7 7 6 4 5 7 6 6 7 7 7 7 7 7 8
18 18 19 18 18 17 17 17 17 18 18 19 19 19 20 20 20 20 20 19 19 19 19 19 18 17 16 14 13 11 10 9 7 8 8 7 7 6 6 6 7 7 7 7 7 8 8 8 7 7 9 9 9 9 8 9 8 8 8 7 7 7 7 7 7 7 8 8 8 8 7 7 8 8 8 4 4 8 8 8 8 8 9 8 8 8 8 8
18 18 17 17 17 17 17 17 18 18 18 18 19 19 19 19 20 20 20 20 20 20 20 19 18 17 16 15 14 11 11 10 8 7 7 7 7 7 6 6 7 7 7 7 7 7 7 7 7 7 9 9 8 8 8 8 8 8 8 7 6 6 6 7 7 8 9 9 9 8 7 8 8 11 9 3 6 10 9 9 9 9 10 10 10 10 10 10
19 18 17 17 17 17 17 17 17 18 18 19 19 19 19 19 20 20 20 21 21 20 20 19 18 17 16 15 14 12 11 10 9 8 7 7 7 7 7 7 7 7 7 6 7 7 7 7 6 7 8 8 8 8 8 7 7 7 7 6 6 6 7 8 8 9 10 10 10 10 10 10 10 12 8 3 8 11 9 10 11 11 11 11 12 12 12 12
20 19 18 18 18 17 17 17 17 18 18 19 19 19 20 20 20 20 21 21 21 21 20 19 18 17 17 15 13 12 11 11 10 9 8 8 8 8 7 7 7 6 6 6 7 6 6 6 6 7 7 7 7 7 7 6 6 5 5 5 5 6 7 8 9 10 10 10 11 11 11 11 12 12 5 2 7 9 9 11 12 12 12 12 13 13 13 13
20 20 19 19 19 18 18 18 18 18 18 19 19 19 20 20 21 21 21 21 21 21 20 19 19 17 16 15 13 12 12 11 10 10 9 9 8 8 8 8 7 7 6 7 7 7 7 7 7 7 7 7 7 6 6 6 6 5 5 5 6 7 8 9 9 10 9 10 10 11 13 13 14 11 3 4 9 10 11 12 12 13 13 14 14 14 14 13
21 20 19 19 19 19 19 19 19 19 19 19 19 19 19 20 21 21 22 22 22 21 21 20 19 17 16 15 14 13 13 11 11 11 10 10 9 9 9 8 7 7 6 7 7 7 7 8 8 8 8 7 7 7 6 6 6 6 6 6 7 8 9 10 10 10 9 10 10 12 15 15 14 9 5 8 11 11 12 12 12 13 13 15 15 15 15 14
21 20 19 19 19 19 19 19 19 19 19 19 19 19 20 20 21 21 22 22 22 22 21 20 19 17 16 14 14 14 13 12 12 11 11 10 10 10 9 9 8 7 7 7 7 7 8 8 8 8 8 8 8 7 6 7 7 7 7 8 9 10 11 11 10 11 10 11 11 12 17 16 11 9 9 11 12 12 13 12 13 14 14 15 15 16 16 16
20 20 20 19 19 19 19 19 19 19 19 19 19 20 20 21 21 21 22 22 22 22 21 20 19 17 16 15 14 15 14 13 13 12 11 11 11 10 10 9 8 7 7 7 7 8 7 8 8 8 8 8 9 9 8 8 8 7 8 9 11 11 11 10 10 11 11 12 12 14 20 19 12 12 13 12 13 14 14 14 15 15 15 16 16 16 16 17
20 20 20 20 20 20 20 20 20 19 19 19 20 20 20 21 22 22 22 22 22 22 21 20 19 17 16 15 14 14 15 14 14 13 13 12 11 11 10 10 9 8 8 8 8 8 8 8 8 8 9 9 9 10 9 9 9 9 9 10 12 11 10 10 10 12 12 12 13 15 19 18 13 13 13 13 14 15 14 14 15 15 16 17 17 17 17 18
21 21 21 21 21 21 21 21 20 20 20 20 20 20 21 21 22 22 22 22 22 22 21 20 19 18 16 15 15 15 14 14 15 15 15 14 13 12 12 11 10 10 9 9 9 9 9 8 9 9 9 10 10 9 9 9 10 11 12 12 12 11 11 11 11 13 13 14 15 16 20 20 16 15 15 15 16 17 17 16 17 17 17 18 19 19 19 19
21 21 21 21 21 21 21 21 21 21 20 20 20 20 20 20 21 22 22 22 22 21 21 20 19 18 16 15 15 15 15 15 15 16 16 16 16 15 14 13 12 12 11 10 10 10 10 10 10 10 10 10 10 9 9 10 10 10 11 12 12 12 12 13 12 13 13 15 17 19 24 23 19 18 18 17 18 20 20 19 20 21 21 21 22 22 22 21
22 22 22 22 21 21 21 20 21 21 21 21 21 21 20 20 20 20 21 21 21 20 20 19 19 17 16 17 16 14 15 16 17 17 18 18 18 17 16 15 14 14 13 12 12 12 12 12 11 11 11 11 10 9 9 9 8 8 9 10 11 12 13 13 12 12 14 16 18 20 25 24 19 18 19 19 21 23 23 23 23 23 24 24 24 24 23 23
24 24 23 23 22 22 21 21 21 21 21 21 21 21 21 21 20 20 20 20 19 19 18 17 19 17 15 15 16 16 17 17 18 19 19 19 19 18 18 17 17 16 15 14 14 14 14 14 13 13 12 9 6 7 8 9 9 10 11 12 13 13 13 13 13 14 16 18 20 22 25 25 22 20 18 19 23 26 25 24 23 24 24 24 25 25 24 24
25 25 25 24 24 23 22 22 22 21 21 21 21 21 21 21 21 20 20 19 18 19 18 16 17 18 16 15 15 16 17 18 18 18 19 20 20 20 20 20 19 18 17 17 16 16 16 16 15 13 10 6 5 8 10 11 12 12 12 13 14 15 13 13 15 16 17 20 22 23 25 27 24 21 18 19 24 26 25 24 24 24 24 25 26 26 26 26
29 26 25 25 25 24 24 23 23 23 22 22 21 21 21 21 20 19 19 19 19 19 20 19 17 17 18 18 17 17 17 17 18 18 19 20 21 21 22 21 21 20 19 19 19 18 17 18 15 10 9 8 9 12 13 13 13 12 13 14 14 15 13 13 15 17 18 21 23 23 26 29 26 23 21 21 25 26 24 25 25 25 24 25 25 25 24 24
35 32 29 27 25 25 24 24 24 24 24 23 23 23 21 20 20 19 19 20 21 21 22 22 21 20 19 19 19 19 18 17 17 18 19 20 21 22 22 22 21 21 20 20 20 19 20 19 14 11 11 10 11 13 13 13 13 13 13 14 14 13 13 13 14 15 17 20 23 23 28 31 28 26 23 22 25 26 24 25 25 24 23 22 22 22 22 22
39 38 35 32 30 27 25 24 24 25 25 25 24 23 22 21 21 20 20 21 22 23 24 24 24 23 22 22 21 21 21 20 19 18 18 18 19 20 21 21 21 21 22 22 22 22 21 17 14 15 15 13 13 14 14 14 13 13 12 13 13 12 13 14 14 16 18 21 24 26 32 36 32 29 26 23 26 25 23 24 24 23 22 20 20 21 22 22
40 39 38 37 35 33 30 27 25 25 25 25 24 24 23 22 21 21 21 22 24 26 26 25 26 26 25 24 24 24 24 23 23 21 20 19 19 19 20 20 20 22 22 21 21 22 21 16 13 14 13 13 13 13 13 13 12 13 14 16 16 14 14 16 17 18 22 25 25 26 31 37 34 28 24 21 23 22 21 24 23 21 20 19 20 20 20 21
38 39 39 39 38 37 35 33 31 27 25 25 24 24 23 23 22 21 20 22 27 29 28 28 29 28 27 26 27 27 26 26 26 24 23 22 21 20 20 20 21 22 21 20 21 22 22 20 18 17 15 15 15 15 14 13 15 17 19 19 17 15 15 16 16 17 21 24 23 20 17 21 27 26 23 23 23 22 22 24 22 19 19 20 22 21 19 20
37 38 40 40 40 40 37 38 37 33 30 26 24 24 22 22 20 19 20 19 26 33 31 30 30 30 31 32 31 27 27 30 29 26 26 25 24 24 23 23 23 22 20 19 21 25 25 23 22 20 20 21 21 20 18 16 19 21 21 19 17 16 15 14 14 14 17 19 22 21 13 16 30 33 28 26 26 24 23 21 19 18 18 21 23 22 20 19
37 38 39 39 40 40 40 41 39 38 37 31 29 25 22 22 18 18 17 11 19 31 33 32 33 32 32 33 32 29 29 32 30 29 29 27 27 27 27 27 26 24 22 20 23 27 26 24 23 23 24 25 26 24 19 18 20 23 22 18 17 15 13 13 14 15 18 23 28 29 23 22 34 40 32 27 27 25 22 17 17 18 17 18 19 18 18 17
38 38 38 39 40 40 41 41 40 40 39 38 36 30 26 23 18 19 13 2 9 21 24 30 34 34 33 32 31 32 35 35 29 27 30 30 30 30 29 30 28 25 24 24 28 29 25 23 23 23 24 26 27 23 18 17 20 23 21 18 16 13 13 14 15 17 18 23 28 26 19 16 28 42 35 29 31 26 20 16 14 16 16 16 17 15 16 17
38 39 39 39 40 40 41 41 40 39 39 40 38 34 32 26 22 19 8 4 15 20 20 25 28 30 33 33 32 32 36 37 32 29 28 28 30 32 31 30 27 27 26 27 31 30 27 25 23 23 25 26 24 19 17 17 18 21 20 18 16 13 15 14 14 18 14 16 20 15 11 9 22 45 40 31 33 25 19 17 13 15 17 17 17 16 17 18
33 36 37 37 39 40 40 41 40 38 36 37 36 35 32 28 28 17 5 11 25 23 22 24 24 26 28 31 33 33 34 35 33 31 29 28 28 29 30 30 28 28 29 30 32 32 31 29 26 27 28 26 25 22 21 19 18 20 18 15 13 12 15 15 16 17 8 11 18 11 11 9 12 39 43 31 29 25 22 21 15 15 18 18 18 18 18 19
30 31 32 32 33 35 36 37 38 37 34 34 33 33 31 30 30 17 8 27 32 25 27 27 27 30 28 28 28 29 32 33 33 32 31 32 30 29 30 31 30 28 29 33 34 35 35 33 31 32 32 30 30 27 24 21 20 20 18 16 13 9 11 12 13 11 2 8 15 5 6 10 13 32 41 32 29 28 27 21 11 11 15 18 21 19 18 19
29 29 29 29 27 28 30 31 33 33 33 32 30 34 35 29 25 21 24 34 24 20 29 30 32 35 30 27 24 23 26 28 31 31 32 33 33 34 33 33 32 28 28 35 37 36 37 38 36 34 35 35 33 29 24 23 23 22 20 18 12 4 4 6 5 4 5 13 16 7 5 13 27 40 41 33 29 24 20 12 8 13 17 18 19 17 18 20
31 30 30 30 28 28 29 28 29 29 31 31 29 34 37 24 20 35 44 36 17 12 21 27 33 34 30 29 27 26 25 25 27 27 29 32 32 35 34 33 35 31 30 34 35 34 32 35 39 39 39 38 37 34 30 28 27 26 27 23 15 5 1 4 3 1 7 15 17 13 9 15 30 35 28 19 13 10 12 12 16 23 21 16 16 17 21 22
32 32 32 32 31 30 30 30 31 30 29 30 30 32 33 21 24 41 46 40 30 20 16 17 22 25 28 31 30 30 29 28 28 27 28 31 32 34 35 35 36 36 36 31 29 30 25 23 32 36 36 37 38 38 36 34 29 27 29 27 23 19 12 6 4 3 5 9 10 9 8 11 17 17 12 7 5 12 21 24 26 23 16 15 18 20 23 20
32 33 33 34 34 33 33 32 32 31 30 30 31 32 34 29 34 41 41 44 42 34 24 14 12 17 24 28 29 29 29 29 31 30 30 32 33 34 34 35 36 37 38 33 27 27 25 25 31 29 28 29 30 31 33 34 30 26 27 28 30 33 26 12 7 10 7 6 9 13 17 24 28 29 27 21 21 29 31 28 21 14 12 17 19 19 19 17
33 33 34 35 36 35 34 33 31 30 31 32 32 34 37 36 37 38 39 42 43 42 37 22 14 18 22 26 28 29 30 30 30 31 33 34 35 35 34 33 35 36 38 37 32 26 23 27 33 30 28 27 24 23 26 28 27 26 29 35 35 32 25 16 12 13 7 4 13 20 27 37 40 39 38 32 30 30 23 17 16 15 17 18 16 16 18 17
35 35 35 35 36 35 35 33 31 30 30 32 33 34 37 37 36 33 33 35 37 41 42 31 22 23 23 24 28 29 30 30 30 31 32 33 32 35 37 36 36 36 37 37 37 33 25 23 28 28 26 27 26 24 24 26 28 29 31 34 33 26 21 17 9 4 2 3 12 20 28 36 31 27 33 31 26 21 16 19 23 21 18 15 14 18 21 19
36 37 37 36 35 34 35 33 32 31 30 32 33 34 36 36 34 33 32 32 31 33 40 37 29 26 25 24 26 28 29 30 31 30 31 31 29 32 35 37 37 37 36 35 37 38 31 24 24 25 22 22 24 25 25 28 31 34 33 28 24 18 15 18 12 4 4 2 5 14 23 31 33 34 38 35 29 26 24 23 19 13 12 13 17 22 22 18
36 37 38 37 35 34 34 34 32 31 32 33 35 37 40 41 37 34 32 32 30 28 32 35 31 28 27 26 25 25 28 31 32 32 31 31 31 33 33 33 32 32 34 37 39 39 35 25 21 25 25 22 23 27 31 33 34 35 34 29 27 21 16 20 19 11 6 3 3 8 11 25 41 43 40 35 30 26 18 12 10 10 13 17 20 23 19 14
37 37 38 37 35 35 34 33 32 33 35 37 38 40 43 43 40 37 34 33 33 31 30 31 31 29 28 28 27 26 26 29 33 34 33 32 33 35 33 31 30 28 29 34 39 40 38 31 25 24 23 23 27 32 35 37 35 35 37 35 34 31 22 17 19 19 12 3 2 1 5 30 50 43 37 33 25 17 12 13 15 13 16 21 23 22 16 13
39 39 39 37 35 36 35 34 34 36 38 41 43 42 42 42 41 38 34 33 33 33 32 32 32 32 31 30 30 30 28 28 31 35 35 35 34 33 30 28 28 28 28 31 36 38 39 39 34 29 27 30 36 37 35 36 35 35 38 37 38 40 33 18 11 19 20 10 8 4 4 36 56 44 37 33 25 22 19 17 17 14 19 24 24 21 14 13
38 40 39 36 34 35 35 37 38 37 39 43 46 45 44 44 43 40 36 33 31 30 31 32 33 33 33 32 32 32 30 27 29 32 34 35 35 34 30 27 25 24 26 29 32 34 37 39 36 36 39 39 38 35 33 33 34 35 37 38 40 42 41 28 12 15 22 20 22 12 6 38 58 45 38 34 27 26 19 12 12 16 25 27 24 18 12 14
35 38 38 35 33 32 34 37 39 40 43 45 46 45 44 43 44 43 41 38 35 33 33 34 35 34 33 33 32 32 32 30 30 33 33 34 36 36 34 33 30 25 24 26 28 30 34 35 32 34 37 37 36 35 35 34 33 36 40 42 42 41 42 36 25 22 19 21 24 12 6 39 57 45 41 35 24 22 21 16 14 19 28 28 24 18 15 18
32 35 38 37 30 28 34 39 40 43 47 47 46 45 45 45 45 44 43 42 41 37 34 35 36 35 33 32 32 33 33 31 32 34 35 36 37 35 35 36 35 32 29 28 27 26 28 33 32 24 17 18 23 25 30 35 36 36 39 40 41 42 41 38 35 27 17 22 30 16 11 41 56 45 42 37 25 22 21 19 17 22 27 26 23 21 24 26
31 32 36 38 32 28 33 38 40 43 46 48 48 47 46 48 48 47 46 45 43 39 36 36 35 34 33 31 31 32 32 31 31 31 33 35 36 35 36 36 36 36 35 31 28 25 26 31 33 24 12 11 14 16 24 34 37 38 41 41 42 43 41 41 39 28 22 33 40 27 26 51 58 48 44 40 32 24 18 18 21 24 25 25 25 28 29 29
30 31 33 35 37 38 38 35 36 41 44 45 47 48 48 49 49 49 46 43 42 40 40 40 37 35 34 33 33 34 34 34 32 32 34 35 35 35 35 35 35 35 35 34 32 28 25 27 31 33 30 29 32 33 32 30 28 32 38 41 43 43 44 44 38 32 36 42 40 40 47 58 60 55 51 46 37 26 21 23 26 27 26 28 30 31 29 28
31 32 33 32 33 40 45 41 38 39 42 43 43 45 48 49 48 47 44 41 41 40 40 40 40 39 38 38 38 38 38 36 35 36 38 38 37 36 35 36 36 34 35 36 35 31 29 30 32 35 38 40 44 45 40 35 34 36 36 36 39 40 43 47 43 44 48 39 34 48 58 56 60 61 56 52 46 38 35 33 31 31 31 30 31 32 30 30
32 33 33 31 29 35 43 47 44 41 40 40 38 39 42 45 46 46 44 44 44 41 39 39 41 42 43 41 40 40 38 36 37 39 41 41 41 40 40 40 38 36 37 37 34 31 31 35 38 39 40 44 46 46 44 43 43 43 41 40 40 38 40 46 47 52 54 44 42 55 56 53 62 64 57 57 55 53 51 45 37 33 32 31 32 35 35 38
34 34 33 32 32 33 36 42 46 46 43 39 37 36 38 40 42 44 44 44 44 42 40 42 44 45 44 42 41 41 40 37 37 41 43 43 42 42 41 41 40 38 37 36 34 31 32 37 41 41 42 45 47 48 48 47 46 46 43 40 38 38 40 46 49 52 53 52 53 57 56 58 64 62 59 58 56 56 55 49 42 36 33 34 35 39 42 43
35 35 33 32 33 34 34 36 42 47 49 46 41 38 37 37 39 41 42 42 42 43 43 44 47 46 44 42 41 43 43 41 41 43 43 41 41 41 41 40 38 36 35 35 35 35 36 38 39 38 38 41 47 50 50 49 47 47 45 40 38 39 43 49 52 51 50 51 54 55 57 63 66 63 61 59 57 58 56 53 49 42 38 40 43 46 48 43
36 35 33 32 32 32 34 36 38 42 47 50 50 48 43 40 38 37 40 42 41 40 42 43 46 45 44 43 44 45 46 45 45 45 43 41 41 41 40 38 36 35 36 37 38 39 38 37 38 37 31 35 46 48 47 49 47 45 48 48 49 53 53 53 52 52 52 53 53 53 56 65 68 64 60 58 58 59 57 55 51 47 47 50 52 51 48 42
38 37 35 33 33 33 32 35 37 41 44 47 50 53 52 48 43 37 37 39 38 38 39 41 43 43 43 45 46 48 48 47 45 43 41 41 41 42 42 41 39 39 39 39 38 39 38 37 40 37 29 34 46 46 43 41 32 34 47 55 60 65 61 54 54 57 60 58 53 54 60 66 66 62 59 58 56 55 54 53 51 52 54 53 50 47 43 39
Wind_Direction
199 198 198 197 195 194 194 193 193 195 196 198 199 200 201 201 202 202 203 202 200 198 195 191 186 181 177 175 177 178 178 179 183 187 191 194 195 194 192 191 188 187 186 187 188 190 192 193 194 194 194 197 200 203 208 212 215 219 223 227 232 237 244 248 243 245 249 233 203 187 179 177 185 192 204 211 207 190 184 185 187 191 193 190 185 184 192 200
200 199 200 199 199 198 196 195 195 196 196 197 198 199 200 200 200 201 202 202 200 197 194 191 187 182 179 179 181 183 183 186 190 195 199 202 202 200 199 197 193 191 190 192 192 193 197 196 198 201 201 203 204 207 210 213 217 221 227 232 238 242 244 240 233 238 243 236 218 196 180 179 193 206 216 223 218 201 180 179 184 185 190 193 194 191 194 202
203 201 201 200 201 201 200 199 198 197 197 197 197 198 199 199 199 200 201 200 198 196 194 191 187 184 182 183 186 188 189 193 198 202 205 206 205 204 202 200 198 197 196 197 196 196 199 197 200 203 206 209 209 212 214 217 222 225 232 237 242 245 242 237 234 240 244 237 225 211 202 197 205 217 224 233 216 182 166 173 181 182 190 194 193 194 199 207
204 204 203 202 202 203 203 202 201 200 199 198 198 198 197 198 198 198 199 198 196 194 192 190 188 186 185 188 191 191 195 198 202 207 208 206 205 204 203 201 201 201 200 200 197 195 197 197 200 201 205 212 212 214 215 219 224 228 235 239 242 243 239 235 233 237 239 235 231 230 236 230 223 229 230 232 203 173 179 187 187 191 199 195 197 206 213 218
203 205 206 206 205 205 205 205 204 202 201 201 200 199 198 197 197 198 197 196 194 192 192 190 189 188 188 192 194 197 199 200 204 206 206 205 202 200 200 201 203 202 202 198 195 197 195 194 197 200 204 210 211 210 212 216 221 226 233 235 238 239 233 229 226 227 229 232 236 244 257 257 248 243 236 236 206 184 202 208 207 217 220 213 212 215 218 226
200 201 202 205 206 205 205 206 206 205 203 203 202 201 200 198 197 197 196 194 192 191 191 191 190 190 191 194 197 200 200 198 202 202 200 200 198 198 198 200 203 201 200 198 196 197 195 192 195 201 205 207 206 204 207 213 218 224 230 232 236 236 229 224 223 221 226 232 238 251 262 261 260 255 248 244 215 210 223 224 228 235 238 234 229 224 222 228
200 200 200 200 202 202 202 203 203 204 204 203 203 202 201 200 198 197 195 193 191 190 191 192 191 191 193 196 198 200 201 198 196 197 195 193 190 192 195 198 202 200 200 201 197 197 198 195 196 206 210 203 198 197 202 210 215 221 228 230 230 232 227 225 224 222 228 234 242 255 261 262 265 261 258 252 223 236 240 236 238 242 245 245 240 237 236 235
205 204 203 201 201 202 202 202 202 203 203 202 202 201 201 201 199 197 194 192 190 190 192 194 194 194 195 198 198 199 203 203 199 191 188 189 187 185 188 194 197 197 200 200 199 199 200 200 200 210 212 202 194 193 194 202 211 216 223 225 225 228 228 228 227 228 232 237 246 257 260 260 262 264 269 253 230 246 248 245 246 245 247 250 250 249 249 248
210 208 206 205 204 203 203 203 203 204 202 201 201 201 200 200 199 197 193 192 190 191 194 196 197 197 197 199 198 198 203 207 205 196 186 184 185 187 189 190 192 194 197 198 198 199 202 205 205 210 213 207 198 193 193 201 210 214 220 223 223 227 231 233 232 232 236 241 249 257 260 260 263 271 281 241 232 248 251 250 252 252 252 253 254 256 256 256
214 211 208 207 207 206 204 204 205 206 204 202 201 200 199 198 197 195 193 192 192 193 196 198 200 200 199 200 197 198 205 208 206 200 193 189 190 192 191 192 193 192 194 196 197 199 202 205 208 213 215 211 205 198 198 205 213 219 223 221 223 228 234 237 236 236 240 245 253 259 261 263 266 272 284 227 241 252 253 252 254 257 259 259 258 259 259 258
216 213 210 209 207 207 206 205 205 204 204 203 202 200 199 198 196 194 193 193 194 196 198 200 202 202 202 200 196 199 206 207 207 205 200 199 200 199 197 197 195 193 196 198 199 200 200 204 211 213 212 212 209 206 208 210 215 222 227 226 228 234 239 243 244 243 246 250 258 265 266 267 267 269 277 259 259 260 260 259 260 262 263 263 263 262 261 259
215 214 212 210 208 208 206 205 204 202 202 201 200 200 198 198 196 194 194 195 196 198 201 202 204 204 204 201 197 204 209 207 209 209 207 208 209 207 205 202 198 198 200 202 204 203 201 203 207 208 210 214 210 211 218 219 221 227 232 234 236 240 243 248 251 253 255 259 264 271 273 269 266 271 273 260 261 264 267 268 267 266 263 264 266 266 265 261
214 212 210 208 207 206 204 203 203 201 200 199 199 198 198 198 197 197 197 199 200 200 202 204 206 206 205 201 201 209 212 211 214 214 213 212 213 213 211 208 205 205 208 211 211 209 207 206 207 210 211 212 211 213 218 219 223 227 234 238 240 244 247 249 255 259 260 262 264 268 271 269 269 275 269 262 265 268 270 270 268 267 266 267 267 267 267 265
210 208 206 204 202 202 203 202 202 202 201 200 199 198 199 200 199 200 201 203 203 204 205 206 207 208 206 203 205 211 215 216 217 218 217 216 216 215 214 214 211 212 215 218 219 218 215 213 213 214 215 217 217 220 223 227 231 233 239 244 244 247 252 255 257 258 257 258 260 261 266 271 273 271 270 269 270 269 268 268 267 268 269 269 267 266 267 266
206 204 202 200 199 200 201 202 203 203 203 203 203 202 202 203 203 204 205 207 208 208 208 209 210 211 209 209 210 213 218 220 221 222 221 218 218 216 217 218 217 220 221 222 224 224 222 220 220 221 223 224 225 228 231 236 242 242 244 247 250 252 257 261 258 256 256 256 257 256 264 272 272 268 272 274 274 273 270 267 266 267 268 268 268 267 265 264
204 202 201 200 200 200 200 201 203 204 206 206 207 207 207 207 207 207 208 210 211 212 213 214 215 216 216 216 217 217 219 223 224 225 225 222 220 219 219 221 222 224 224 226 228 228 228 226 225 226 227 229 231 236 241 246 249 248 248 250 257 262 261 260 259 259 259 259 258 257 262 269 271 273 275 277 277 276 273 269 268 267 265 265 266 267 267 266
205 203 203 203 202 202 202 203 204 205 206 207 209 210 211 211 210 209 210 211 213 216 218 219 221 221 222 221 221 221 222 226 227 227 226 225 224 222 223 225 226 227 227 229 229 229 231 229 228 229 230 232 234 236 241 249 254 255 258 259 262 263 261 260 261 264 265 263 262 262 265 269 273 275 276 276 275 272 271 271 269 267 266 266 267 269 272 271
210 209 207 207 207 207 207 207 207 207 207 207 209 210 212 213 213 213 214 215 217 219 221 224 224 222 223 225 223 222 222 225 227 228 227 226 226 225 226 228 228 229 229 231 232 232 232 233 233 232 233 234 238 241 244 257 266 263 262 264 263 260 260 265 267 268 267 265 264 265 269 275 277 274 273 274 274 272 271 271 271 271 272 272 273 274 276 274
214 215 214 212 211 211 211 212 212 211 210 209 209 210 212 213 215 217 218 218 219 220 222 224 225 223 223 225 223 222 222 223 225 226 227 227 227 227 228 229 230 230 231 233 235 234 234 235 234 233 237 243 252 251 249 259 262 256 256 260 263 265 268 273 274 273 272 270 269 269 273 278 277 272 270 271 272 272 273 275 277 279 278 278 279 279 278 276
217 217 218 218 217 215 214 214 215 215 214 213 212 212 213 212 214 216 218 221 222 223 223 223 225 223 223 223 221 221 222 223 224 225 226 227 227 228 228 229 230 231 232 234 236 235 236 238 237 236 243 256 252 239 239 247 251 253 259 262 266 272 279 283 281 278 277 276 274 275 276 276 275 274 272 270 268 270 275 280 284 285 284 283 282 281 279 279
222 220 220 220 220 220 218 217 217 217 217 218 216 216 217 216 217 218 219 221 222 224 225 225 224 223 223 223 222 223 222 223 224 224 226 226 226 228 229 230 230 232 233 234 236 237 238 240 239 240 248 248 238 236 240 245 251 258 263 267 273 281 288 290 286 284 281 277 277 279 278 276 276 278 276 273 272 274 280 283 286 288 288 287 286 285 283 281
227 226 224 223 222 222 222 222 222 221 220 221 221 221 222 221 222 223 223 225 225 226 228 228 228 227 227 227 227 228 227 225 224 223 225 227 227 229 231 232 232 234 234 235 237 239 243 244 240 239 245 239 231 237 246 251 258 263 267 272 277 285 292 292 288 287 283 280 281 282 280 278 279 279 277 277 278 281 283 285 290 293 293 293 291 285 280 276
228 230 231 230 228 227 226 225 226 227 225 224 224 225 226 227 229 230 231 234 232 230 231 232 232 231 231 232 232 233 233 231 228 226 226 226 227 230 233 233 234 235 235 237 239 240 244 243 237 240 243 238 238 243 250 256 262 266 270 275 280 288 294 293 291 289 285 282 283 285 284 282 280 279 279 279 279 281 285 288 292 296 300 299 289 280 274 271
225 229 232 234 235 234 232 231 230 230 229 229 229 229 229 231 233 235 238 243 243 238 235 236 236 235 234 235 236 236 236 234 232 231 229 229 228 230 234 234 234 235 235 237 240 242 242 234 232 242 240 233 236 242 248 256 266 274 277 278 283 288 289 287 287 288 287 283 284 288 288 286 284 283 282 280 278 280 286 289 292 299 304 300 287 278 273 270
222 226 229 233 236 236 235 236 234 232 232 231 231 231 232 233 235 239 242 249 251 245 240 240 240 239 237 236 237 237 238 238 235 233 233 233 232 232 235 233 234 235 234 235 239 242 239 232 236 243 239 236 242 248 252 261 273 278 278 278 283 286 284 283 285 289 289 287 288 290 290 286 284 284 284 284 283 284 286 287 292 302 301 288 278 274 272 272
219 222 225 229 233 234 234 236 235 235 234 233 232 231 231 233 235 238 241 253 259 250 244 243 241 240 237 235 236 236 241 242 236 234 235 234 233 234 234 233 235 236 234 235 240 243 239 235 239 241 240 244 249 253 257 266 273 275 275 278 282 282 279 280 282 285 284 287 290 286 274 276 282 283 283 287 286 285 283 284 292 300 291 277 273 273 273 272
221 222 224 226 230 233 232 233 234 235 235 234 234 231 230 231 230 233 238 260 267 253 247 244 241 240 238 237 236 233 238 242 236 232 234 233 234 235 235 236 235 235 234 233 238 243 241 237 238 239 242 246 249 255 263 269 270 271 274 278 279 277 276 278 281 280 279 284 285 277 268 273 282 283 286 290 287 283 281 287 297 294 286 281 277 274 272 269
221 224 226 227 228 231 231 231 232 233 234 235 235 233 231 229 227 232 231 243 268 253 246 242 240 241 240 239 237 232 236 242 239 234 234 233 235 236 237 238 238 239 239 238 242 247 248 245 243 244 245 248 253 259 264 264 264 267 270 271 269 270 274 277 279 277 282 288 284 273 259 262 278 283 288 291 285 284 289 295 297 291 288 287 280 273 270 267
224 223 225 228 228 229 229 229 230 231 232 233 234 234 233 231 230 228 212 209 245 247 244 240 238 238 237 237 236 234 237 241 239 238 238 235 234 236 238 240 240 240 239 240 245 250 252 250 247 247 247 249 255 259 255 251 254 259 261 262 263 270 275 277 278 275 282 284 275 263 244 242 278 283 285 286 283 287 293 294 294 292 291 287 278 273 269 263
234 227 225 227 227 226 226 225 227 228 230 232 233 233 231 231 226 207 153 232 239 242 240 238 238 237 236 234 233 233 235 238 238 237 238 237 235 235 237 239 238 238 238 240 243 247 249 249 247 247 249 251 253 253 249 244 242 249 252 254 260 268 271 273 273 274 285 272 263 261 257 244 276 283 281 282 286 289 290 291 294 288 287 287 281 272 264 259
241 236 233 231 230 229 225 223 222 222 226 228 228 230 228 226 216 188 199 238 240 245 240 237 240 240 239 236 233 233 234 236 237 235 235 236 235 232 231 231 230 231 235 238 241 243 245 246 246 247 249 250 250 248 247 244 241 245 249 252 256 262 270 271 265 259 215 260 266 270 252 218 225 271 280 283 286 287 289 291 285 276 287 291 281 269 261 261
237 237 239 237 235 235 232 229 225 220 223 224 225 225 218 210 202 198 224 236 241 250 240 238 243 241 241 240 238 239 237 237 238 235 235 235 235 235 233 232 230 225 229 235 238 240 242 244 245 246 247 247 246 245 242 242 240 242 245 243 235 233 286 266 244 233 219 250 263 254 207 223 244 267 281 284 283 284 285 281 269 286 299 288 269 260 266 271
234 235 237 236 235 236 235 236 231 225 225 226 230 220 201 189 204 216 223 226 227 243 238 238 241 240 240 240 238 237 236 239 240 237 236 235 236 239 238 238 236 231 234 238 236 236 243 246 244 242 244 244 244 241 238 240 239 240 241 234 219 183 110 248 237 299 260 255 260 256 243 248 260 273 285 283 277 273 269 274 289 299 301 277 249 255 275 277
235 235 235 235 236 234 234 235 232 231 227 227 234 217 191 186 218 221 222 223 224 234 240 233 230 230 233 236 238 235 231 234 236 234 232 230 231 234 234 234 234 234 237 241 239 236 238 246 245 243 243 245 247 247 247 249 248 248 246 239 233 227 218 222 217 196 256 276 270 248 237 247 257 271 283 277 255 264 277 287 294 297 289 264 254 260 270 268
235 234 234 235 236 234 234 233 232 234 229 229 233 213 192 198 214 217 221 222 223 230 238 234 219 219 223 228 233 232 229 231 232 230 229 228 230 233 234 233 232 232 232 232 236 237 234 245 251 248 247 248 249 250 249 246 243 245 241 233 235 239 237 236 246 246 265 318 282 250 250 258 263 269 271 271 270 274 284 289 287 287 276 271 270 260 253 252
236 235 233 234 235 235 235 234 234 234 231 233 229 211 207 217 221 223 227 225 224 228 234 234 221 220 221 222 226 226 224 227 228 226 227 228 232 234 236 237 236 235 234 231 231 230 230 243 250 248 247 247 244 244 242 236 233 231 228 228 232 238 238 232 246 262 270 299 270 260 261 266 270 274 273 274 277 279 283 281 277 284 281 277 269 246 239 248
237 236 234 233 234 235 236 235 235 232 231 235 232 224 227 232 231 232 234 232 229 230 234 233 224 224 225 221 223 223 221 222 223 225 227 227 230 234 235 236 236 237 240 238 235 235 235 243 249 248 246 245 242 238 234 231 229 225 226 232 234 235 235 228 230 274 257 253 265 258 262 268 270 273 275 277 278 278 278 282 285 285 277 268 251 236 238 249
239 238 237 234 233 235 236 235 234 232 231 234 237 239 241 240 238 238 235 233 233 231 233 232 228 228 230 229 229 224 220 220 220 222 225 226 231 238 238 237 238 238 241 239 235 237 239 242 250 250 244 243 239 233 227 225 225 226 230 235 230 223 221 215 206 221 234 217 275 262 265 271 266 266 274 278 277 280 286 288 285 274 263 262 249 236 234 243
239 239 239 236 233 234 235 235 234 232 232 233 235 239 243 245 246 243 239 239 239 235 233 234 232 229 228 231 234 228 222 223 224 223 225 227 234 243 244 242 242 241 242 239 235 236 237 238 247 248 242 236 228 223 224 224 220 220 227 230 229 228 221 213 208 213 222 189 258 276 279 273 269 270 277 280 282 287 287 276 262 260 262 256 241 230 226 242
238 239 240 237 232 231 233 235 234 231 231 233 235 238 242 246 248 245 244 244 242 240 238 239 237 231 229 230 232 234 231 230 231 229 228 230 237 246 247 245 244 243 242 240 237 236 235 234 241 243 234 224 225 231 236 236 229 223 223 224 227 225 218 221 223 220 219 184 198 243 282 269 271 275 278 280 285 282 265 265 273 267 254 241 227 222 227 252
237 237 239 238 232 229 229 230 230 229 230 233 236 239 241 244 247 247 244 242 242 243 242 243 242 237 234 230 229 234 234 233 233 231 231 233 237 244 247 247 247 247 245 240 237 236 232 232 236 236 230 231 238 244 247 246 244 240 237 236 237 232 220 216 224 220 219 217 222 195 263 269 271 276 277 278 281 275 271 279 278 245 226 227 218 217 237 262
236 236 238 238 234 229 227 228 229 229 231 232 234 238 240 241 244 246 244 242 243 245 245 247 247 243 240 236 233 232 233 234 234 231 232 236 240 245 249 250 248 246 246 244 244 244 238 233 233 235 239 245 249 249 247 246 245 243 243 243 244 237 224 214 209 220 216 218 234 232 250 267 268 272 275 277 278 277 275 272 261 222 209 212 211 218 255 272
238 237 236 235 235 232 228 228 229 230 232 234 235 237 241 242 245 246 247 245 243 243 244 245 246 246 246 245 242 236 233 234 234 233 235 239 243 247 249 250 248 245 245 245 247 247 234 225 229 237 244 250 251 250 249 247 243 237 236 237 236 235 231 224 226 236 224 214 228 226 235 262 265 268 272 275 274 273 272 264 252 219 205 205 209 227 264 270
241 238 234 231 231 233 231 229 229 230 232 234 236 238 240 242 245 246 247 247 246 244 242 243 244 246 248 249 248 245 239 235 237 238 240 242 245 247 249 250 249 247 247 245 247 244 230 223 226 231 245 254 251 250 245 241 237 235 236 237 236 238 237 231 230 236 236 232 234 223 233 258 264 267 269 271 271 267 265 256 237 212 206 208 216 243 264 261
241 238 235 229 223 221 227 231 232 233 234 235 236 238 239 241 244 246 248 249 249 248 246 246 246 248 250 250 250 249 245 242 243 244 244 245 249 251 251 250 250 249 249 248 248 247 241 234 229 222 217 233 237 236 238 238 236 236 239 241 239 238 236 233 232 227 231 242 238 227 242 257 262 265 265 269 272 263 245 230 219 208 211 225 243 260 262 254
238 237 236 230 221 217 220 225 228 231 234 236 237 237 239 241 244 246 248 248 249 250 249 248 247 246 248 249 249 249 249 248 248 247 248 250 252 255 255 253 252 251 249 249 247 244 242 240 237 233 232 238 245 248 249 250 245 241 245 246 242 240 238 236 231 224 232 242 240 237 247 256 260 262 263 265 265 256 237 226 223 226 238 252 258 256 249 256
235 237 237 232 223 219 220 221 222 226 230 232 235 238 239 240 243 246 247 247 247 248 248 249 248 245 243 244 245 247 248 248 247 246 249 252 253 255 256 256 256 255 254 253 248 242 239 239 240 241 241 246 252 256 257 259 259 257 258 257 251 247 241 233 230 235 240 239 242 248 249 253 260 263 263 263 262 258 251 242 241 252 262 265 254 240 244 270
234 238 239 235 228 223 223 222 222 225 228 228 230 236 239 240 241 243 245 246 247 246 245 246 246 246 244 243 243 244 245 245 244 244 248 250 250 252 254 256 257 257 258 258 254 246 241 242 245 244 245 249 252 254 256 258 260 261 260 261 259 255 247 238 238 245 244 234 241 254 253 254 262 266 266 266 265 264 262 257 258 263 263 259 246 239 256 279
234 237 237 235 232 229 228 226 224 226 227 225 225 229 235 239 241 242 243 245 244 243 242 243 245 247 247 245 242 242 242 240 241 244 247 249 250 251 252 254 256 257 258 259 258 253 244 244 249 248 246 251 254 254 254 254 256 257 256 257 258 255 252 250 251 255 251 244 248 258 260 260 264 268 269 268 268 266 264 261 261 260 258 257 251 252 269 281
235 237 236 235 234 232 230 228 226 227 228 227 226 226 228 234 239 242 243 242 242 242 242 243 246 248 249 249 245 243 244 244 244 247 248 249 250 251 251 253 254 256 257 255 253 251 243 242 250 251 246 250 255 255 253 251 252 255 255 255 255 255 253 252 253 255 253 250 253 257 260 262 264 264 266 267 267 265 263 263 264 263 262 266 267 269 277 281
234 235 234 234 236 235 231 229 227 228 230 231 231 231 229 231 234 239 241 240 241 245 246 248 251 252 253 251 248 249 252 251 250 251 251 250 252 253 254 256 257 256 257 256 255 251 245 244 252 252 243 246 255 256 253 251 251 252 254 254 252 250 249 248 250 253 251 251 252 251 253 259 261 262 263 264 265 265 265 265 267 268 271 275 277 278 279 278
231 231 231 231 233 233 231 229 227 228 230 232 233 234 233 234 235 238 243 243 242 246 251 254 256 256 255 252 252 256 261 261 259 259 258 256 257 258 257 258 259 257 256 258 258 256 253 250 252 249 240 245 255 258 255 252 249 246 249 252 251 249 248 249 251 254 254 252 250 249 252 258 262 263 265 266 266 268 268 269 272 276 279 281 279 277 275 273
Height
3126 3128 3129 3130 3132 3133 3135 3137 3139 3140 3142 3143 3145 3147 3148 3150 3151 3153 3154 3155 3156 3158 3159 3160 3162 3163 3164 3165 3167 3168 3169 3170 3171 3172 3173 3174 3175 3176 3176 3177 3178 3179 3180 3180 3181 3182 3183 3184 3185 3185 3186 3186 3187 3188 3190 3190 3191 3192 3192 3193 3193 3193 3194 3195 3195 3196 3196 3196 3197 3197 3198 3198 3198 3198 3199 3199 3200 3200 3200 3201 3201 3202 3202 3203 3204 3204 3205 3205
3125 3127 3128 3130 3131 3133 3134 3136 3137 3138 3140 3142 3144 3145 3147 3149 3150 3151 3153 3154 3155 3157 3158 3159 3161 3162 3163 3165 3166 3167 3169 3170 3171 3171 3172 3173 3174 3175 3176 3177 3177 3178 3179 3180 3181 3181 3182 3183 3184 3185 3185 3186 3187 3188 3189 3190 3191 3191 3191 3192 3192 3193 3194 3194 3195 3195 3195 3196 3196 3197 3197 3197 3197 3198 3198 3199 3199 3199 3200 3200 3201 3201 3202 3202 3203 3203 3204 3204
3125 3126 3127 3129 3131 3132 3133 3134 3135 3137 3139 3140 3142 3144 3145 3147 3149 3150 3152 3153 3154 3156 3157 3159 3160 3162 3163 3164 3165 3167 3168 3169 3170 3171 3172 3173 3173 3174 3175 3176 3177 3177 3178 3179 3180 3181 3182 3182 3183 3184 3184 3185 3186 3187 3188 3189 3190 3190 3191 3191 3191 3192 3193 3193 3194 3194 3195 3195 3195 3196 3196 3197 3197 3197 3197 3198 3198 3199 3199 3199 3200 3200 3201 3201 3202 3202 3203 3203
3124 3126 3127 3128 3129 3131 3132 3133 3135 3136 3138 3139 3141 3142 3144 3146 3147 3149 3150 3152 3153 3155 3156 3158 3159 3161 3162 3163 3165 3166 3168 3169 3170 3170 3171 3172 3173 3173 3174 3175 3176 3177 3178 3179 3180 3180 3181 3182 3182 3183 3184 3185 3186 3187 3187 3188 3189 3189 3190 3190 3190 3191 3192 3193 3193 3193 3194 3194 3195 3195 3196 3196 3196 3196 3196 3197 3197 3198 3198 3198 3199 3199 3200 3200 3201 3201 3202 3202
3123 3125 3126 3127 3128 3130 3131 3133 3134 3135 3137 3138 3140 3141 3143 3145 3146 3148 3149 3151 3152 3154 3155 3157 3159 3160 3161 3163 3164 3166 3167 3168 3169 3169 3170 3171 3172 3173 3173 3174 3175 3176 3177 3178 3179 3180 3180 3181 3181 3182 3183 3184 3185 3186 3187 3187 3188 3188 3189 3189 3189 3190 3191 3191 3192 3193 3193 3194 3194 3194 3195 3195 3195 3195 3196 3196 3197 3197 3197 3198 3198 3199 3199 3200 3200 3200 3201 3201
3121 3123 3124 3125 3127 3128 3130 3132 3133 3135 3136 3137 3139 3141 3142 3143 3145 3146 3148 3150 3151 3153 3154 3156 3158 3159 3161 3162 3163 3165 3166 3167 3167 3168 3169 3170 3171 3172 3173 3173 3174 3175 3176 3177 3178 3179 3180 3180 3181 3182 3183 3183 3184 3185 3186 3186 3187 3187 3187 3188 3188 3189 3190 3190 3191 3192 3192 3193 3193 3194 3194 3194 3194 3194 3195 3195 3196 3196 3196 3197 3197 3198 3198 3198 3199 3199 3200 3200
3119 3120 3122 3123 3125 3126 3128 3130 3131 3133 3135 3136 3138 3139 3141 3143 3144 3146 3147 3149 3150 3152 3153 3155 3157 3158 3160 3161 3163 3164 3165 3166 3166 3167 3168 3169 3170 3171 3172 3173 3174 3175 3176 3177 3177 3178 3179 3180 3180 3181 3182 3183 3184 3184 3185 3185 3186 3186 3187 3187 3188 3188 3189 3190 3190 3191 3191 3192 3192 3193 3193 3193 3193 3193 3194 3194 3195 3195 3195 3196 3196 3196 3197 3197 3197 3198 3198 3198
3118 3119 3121 3122 3124 3125 3126 3128 3130 3131 3133 3135 3136 3138 3140 3142 3143 3145 3146 3148 3149 3151 3153 3154 3156 3157 3159 3160 3162 3163 3164 3165 3166 3166 3167 3168 3169 3170 3171 3172 3173 3174 3175 3176 3176 3177 3178 3179 3180 3181 3182 3182 3183 3183 3184 3184 3185 3185 3186 3186 3187 3187 3188 3189 3189 3190 3190 3191 3191 3192 3192 3192 3192 3192 3192 3193 3194 3193 3193 3194 3194 3195 3195 3195 3196 3196 3196 3197
3117 3118 3120 3121 3123 3124 3126 3127 3129 3130 3132 3133 3135 3137 3138 3140 3142 3144 3145 3147 3149 3150 3152 3153 3155 3156 3158 3159 3161 3162 3163 3164 3165 3166 3167 3168 3169 3169 3170 3171 3172 3173 3174 3175 3176 3177 3178 3179 3180 3180 3181 3182 3182 3183 3183 3184 3184 3185 3185 3186 3186 3187 3187 3188 3188 3189 3189 3190 3190 3190 3191 3191 3191 3191 3191 3192 3192 3192 3192 3193 3193 3193 3194 3194 3194 3194 3195 3195
3116 3117 3119 3120 3122 3123 3125 3126 3128 3129 3131 3132 3134 3135 3137 3139 3141 3143 3144 3146 3148 3149 3151 3152 3154 3155 3157 3158 3160 3161 3162 3163 3164 3165 3166 3167 3168 3169 3170 3170 3171 3172 3173 3174 3175 3176 3177 3178 3179 3180 3180 3181 3182 3182 3183 3183 3184 3184 3185 3185 3186 3186 3187 3187 3187 3188 3188 3189 3189 3189 3189 3189 3190 3190 3190 3191 3191 3191 3191 3191 3191 3191 3192 3192 3192 3193 3193 3193
3115 3116 3118 3119 3120 3122 3124 3125 3126 3128 3130 3131 3133 3134 3136 3138 3139 3141 3143 3145 3147 3148 3150 3151 3153 3154 3156 3157 3159 3160 3161 3162 3163 3164 3165 3166 3167 3168 3169 3170 3170 3171 3172 3173 3174 3175 3176 3177 3178 3179 3180 3180 3181 3182 3182 3183 3183 3184 3184 3185 3185 3186 3186 3186 3186 3187 3188 3188 3188 3188 3188 3188 3188 3189 3189 3189 3189 3189 3189 3190 3190 3190 3190 3190 3190 3191 3191 3191
3113 3115 3117 3118 3119 3121 3122 3124 3125 3127 3128 3130 3132 3134 3135 3137 3138 3140 3142 3144 3145 3147 3149 3150 3152 3153 3155 3156 3158 3158 3160 3161 3162 3163 3164 3165 3166 3167 3168 3169 3169 3170 3171 3172 3173 3174 3175 3176 3177 3178 3179 3179 3180 3181 3181 3182 3182 3183 3183 3184 3184 3184 3185 3185 3185 3186 3187 3187 3187 3187 3186 3185 3186 3187 3188 3188 3188 3188 3188 3188 3188 3188 3188 3188 3188 3188 3189 3189
3112 3114 3115 3117 3118 3120 3121 3123 3124 3126 3127 3129 3130 3132 3134 3136 3137 3139 3141 3143 3144 3146 3147 3149 3150 3152 3153 3155 3156 3157 3159 3160 3161 3162 3163 3164 3165 3166 3167 3168 3168 3169 3170 3171 3172 3173 3174 3175 3176 3177 3178 3178 3179 3180 3180 3181 3181 3182 3182 3182 3183 3183 3183 3184 3184 3185 3185 3186 3186 3186 3184 3183 3185 3186 3186 3186 3186 3186 3186 3186 3186 3186 3186 3186 3186 3186 3187 3187
3111 3112 3114 3115 3117 3119 3120 3122 3123 3125 3126 3128 3129 3131 3133 3134 3136 3138 3140 3141 3143 3144 3146 3147 3149 3151 3152 3154 3155 3156 3158 3159 3160 3161 3162 3163 3164 3165 3166 3167 3168 3168 3169 3171 3172 3173 3174 3175 3175 3176 3177 3177 3178 3179 3179 3180 3180 3181 3181 3181 3181 3181 3182 3183 3183 3183 3184 3184 3185 3185 3181 3180 3183 3184 3184 3184 3184 3184 3184 3184 3184 3184 3184 3184 3184 3184 3185 3185
3109 3111 3113 3114 3116 3117 3119 3121 3122 3124 3125 3127 3128 3130 3131 3133 3135 3137 3138 3140 3142 3143 3145 3146 3148 3149 3151 3153 3154 3155 3156 3157 3159 3160 3161 3162 3163 3164 3165 3166 3167 3168 3169 3170 3171 3172 3173 3173 3174 3175 3176 3176 3177 3177 3178 3179 3179 3180 3180 3180 3179 3180 3181 3181 3182 3182 3182 3183 3183 3183 3180 3178 3181 3182 3182 3182 3182 3182 3182 3182 3182 3182 3182 3182 3182 3182 3182 3182
3108 3110 3111 3113 3115 3116 3118 3119 3121 3123 3124 3126 3127 3129 3130 3132 3133 3135 3137 3139 3140 3142 3143 3145 3146 3148 3150 3151 3152 3153 3155 3156 3157 3158 3160 3161 3162 3163 3164 3165 3166 3167 3168 3169 3170 3171 3172 3173 3173 3174 3175 3175 3176 3176 3177 3177 3177 3178 3178 3178 3178 3179 3180 3180 3180 3180 3181 3181 3181 3181 3178 3176 3179 3180 3180 3180 3180 3180 3180 3180 3180 3180 3180 3180 3180 3180 3180 3180
3106 3108 3110 3112 3113 3115 3116 3118 3120 3121 3123 3124 3126 3127 3129 3130 3132 3134 3135 3137 3139 3140 3142 3143 3145 3147 3148 3149 3150 3152 3153 3154 3155 3157 3158 3159 3160 3162 3163 3164 3165 3166 3167 3168 3169 3169 3170 3171 3172 3173 3173 3174 3174 3175 3175 3176 3176 3176 3177 3177 3178 3178 3178 3178 3179 3179 3179 3179 3179 3178 3175 3174 3177 3178 3178 3178 3178 3177 3177 3177 3177 3177 3177 3177 3177 3177 3177 3178
3105 3107 3109 3110 3112 3114 3115 3117 3118 3120 3121 3123 3124 3126 3127 3129 3131 3132 3134 3135 3137 3138 3140 3141 3143 3145 3146 3146 3148 3150 3151 3152 3153 3154 3156 3157 3159 3160 3161 3162 3163 3164 3166 3166 3167 3168 3169 3170 3171 3171 3172 3172 3173 3173 3174 3174 3174 3175 3175 3176 3176 3176 3176 3177 3177 3177 3178 3177 3177 3176 3173 3172 3174 3175 3176 3176 3175 3174 3174 3174 3174 3174 3174 3174 3174 3174 3174 3174
3103 3105 3107 3109 3111 3112 3114 3116 3117 3118 3120 3121 3123 3124 3126 3127 3129 3131 3132 3134 3135 3137 3138 3140 3141 3143 3144 3145 3146 3147 3148 3150 3151 3152 3154 3155 3157 3158 3160 3161 3162 3163 3164 3165 3166 3167 3167 3168 3169 3169 3170 3171 3172 3172 3172 3172 3172 3173 3174 3174 3174 3175 3175 3176 3176 3176 3176 3175 3174 3174 3171 3170 3171 3172 3173 3174 3172 3170 3171 3171 3171 3171 3171 3171 3171 3171 3171 3170
3101 3103 3105 3107 3109 3111 3112 3114 3115 3117 3119 3120 3122 3123 3124 3126 3127 3129 3131 3132 3134 3135 3137 3138 3139 3141 3142 3143 3144 3145 3146 3148 3149 3150 3152 3153 3155 3156 3157 3158 3160 3161 3162 3163 3164 3165 3166 3166 3167 3168 3169 3170 3170 3170 3170 3170 3171 3172 3172 3173 3173 3173 3174 3174 3174 3174 3174 3172 3171 3171 3169 3167 3167 3168 3170 3171 3169 3167 3168 3168 3168 3168 3168 3168 3167 3167 3167 3167
3099 3101 3102 3104 3107 3109 3111 3112 3114 3115 3117 3119 3120 3121 3123 3124 3126 3127 3129 3131 3132 3133 3134 3136 3137 3138 3140 3141 3142 3143 3145 3146 3147 3148 3150 3151 3153 3153 3155 3156 3158 3159 3160 3161 3162 3163 3164 3164 3165 3167 3167 3168 3168 3168 3168 3169 3169 3170 3171 3171 3171 3172 3172 3172 3172 3171 3171 3170 3168 3168 3166 3164 3164 3165 3166 3167 3165 3165 3166 3165 3165 3165 3165 3164 3164 3163 3163 3163
3096 3098 3100 3102 3104 3106 3109 3110 3112 3114 3115 3117 3119 3120 3122 3123 3124 3126 3127 3128 3130 3131 3132 3133 3135 3136 3138 3139 3141 3142 3143 3144 3145 3146 3147 3149 3150 3151 3152 3154 3155 3157 3158 3159 3160 3161 3161 3162 3164 3165 3165 3165 3166 3166 3167 3167 3168 3169 3169 3169 3170 3171 3171 3171 3170 3169 3169 3167 3165 3165 3162 3159 3161 3162 3163 3164 3162 3161 3162 3162 3161 3161 3161 3161 3160 3159 3159 3159
3093 3095 3098 3100 3102 3104 3106 3108 3110 3112 3114 3115 3117 3118 3120 3122 3123 3124 3126 3126 3127 3128 3129 3131 3132 3134 3135 3137 3138 3140 3140 3142 3143 3144 3146 3147 3148 3149 3150 3152 3153 3154 3155 3156 3158 3159 3159 3160 3162 3162 3162 3163 3164 3164 3165 3165 3166 3167 3167 3168 3168 3169 3169 3169 3168 3167 3167 3165 3163 3163 3158 3155 3157 3158 3159 3161 3159 3158 3159 3158 3158 3158 3157 3157 3156 3155 3155 3155
3090 3093 3095 3096 3099 3101 3104 3106 3108 3110 3112 3113 3115 3117 3118 3120 3121 3123 3124 3124 3124 3125 3127 3128 3129 3131 3133 3134 3136 3136 3137 3139 3141 3142 3144 3145 3146 3147 3148 3150 3151 3151 3153 3154 3155 3156 3157 3159 3160 3160 3160 3161 3162 3162 3163 3164 3164 3165 3165 3166 3166 3167 3168 3167 3166 3166 3164 3162 3161 3161 3156 3149 3151 3154 3155 3157 3156 3156 3157 3155 3155 3155 3154 3153 3152 3151 3151 3151
3087 3090 3091 3093 3095 3097 3101 3104 3105 3107 3109 3111 3113 3114 3116 3118 3119 3121 3122 3122 3120 3121 3123 3124 3126 3127 3130 3131 3131 3133 3135 3136 3138 3140 3141 3143 3144 3145 3146 3147 3148 3149 3151 3152 3153 3153 3154 3156 3157 3158 3159 3159 3159 3160 3161 3162 3163 3163 3163 3163 3165 3165 3166 3165 3165 3164 3161 3159 3158 3160 3156 3146 3146 3151 3152 3153 3153 3153 3154 3152 3152 3153 3152 3150 3148 3148 3149 3148
3083 3086 3088 3090 3091 3094 3098 3100 3102 3105 3106 3109 3111 3112 3114 3115 3118 3119 3120 3120 3116 3115 3119 3121 3122 3123 3124 3126 3128 3131 3132 3131 3134 3137 3138 3140 3141 3142 3143 3144 3145 3147 3149 3151 3150 3149 3150 3153 3155 3156 3156 3156 3157 3157 3159 3161 3161 3160 3160 3161 3163 3163 3163 3163 3163 3163 3160 3158 3156 3158 3156 3146 3141 3145 3148 3150 3150 3149 3150 3150 3149 3150 3148 3146 3145 3145 3146 3146
3079 3082 3084 3086 3088 3091 3094 3097 3100 3101 3103 3106 3108 3110 3112 3113 3116 3116 3118 3119 3112 3110 3114 3116 3117 3118 3119 3122 3125 3129 3127 3125 3130 3133 3134 3136 3138 3139 3140 3141 3143 3145 3147 3149 3147 3144 3147 3150 3152 3153 3154 3153 3153 3155 3158 3160 3159 3158 3158 3160 3160 3160 3161 3161 3162 3161 3159 3157 3154 3153 3155 3149 3137 3137 3144 3146 3145 3145 3146 3148 3147 3146 3145 3144 3143 3143 3143 3143
3075 3078 3080 3083 3085 3087 3090 3094 3097 3098 3100 3103 3105 3107 3109 3111 3114 3115 3118 3119 3109 3104 3108 3110 3111 3113 3115 3118 3121 3124 3122 3121 3127 3129 3131 3133 3134 3136 3137 3138 3141 3143 3145 3146 3143 3142 3145 3148 3149 3150 3151 3150 3150 3154 3156 3157 3157 3155 3156 3157 3158 3159 3159 3159 3160 3159 3158 3156 3149 3145 3152 3152 3135 3129 3140 3142 3139 3141 3143 3144 3144 3142 3142 3141 3141 3141 3141 3141
3071 3074 3076 3079 3081 3083 3086 3090 3093 3095 3097 3099 3102 3104 3106 3109 3112 3113 3117 3115 3104 3100 3103 3105 3107 3109 3111 3114 3116 3119 3119 3119 3123 3126 3128 3130 3131 3133 3134 3136 3139 3141 3142 3142 3140 3141 3143 3144 3146 3147 3147 3147 3149 3152 3153 3154 3154 3153 3154 3155 3156 3157 3157 3158 3158 3156 3158 3154 3144 3142 3149 3151 3136 3125 3134 3138 3135 3137 3140 3140 3141 3140 3139 3139 3138 3139 3138 3138
3067 3069 3072 3074 3076 3078 3082 3086 3089 3092 3094 3096 3098 3100 3103 3106 3108 3112 3114 3107 3098 3097 3099 3101 3104 3105 3106 3109 3112 3114 3116 3117 3120 3123 3126 3127 3128 3130 3132 3134 3136 3137 3138 3138 3138 3138 3139 3140 3143 3143 3144 3145 3147 3148 3149 3151 3151 3151 3152 3153 3154 3156 3155 3156 3155 3154 3157 3150 3140 3140 3144 3149 3140 3123 3126 3133 3132 3134 3136 3137 3139 3137 3136 3136 3136 3136 3135 3135
3063 3066 3068 3070 3072 3074 3078 3081 3084 3088 3090 3092 3094 3097 3099 3101 3103 3107 3105 3098 3095 3094 3094 3098 3100 3101 3103 3106 3108 3111 3113 3114 3117 3120 3122 3123 3125 3126 3128 3129 3131 3133 3134 3134 3133 3134 3135 3136 3138 3139 3141 3142 3143 3144 3146 3148 3149 3149 3150 3151 3153 3154 3153 3154 3152 3152 3154 3145 3137 3139 3142 3146 3138 3120 3121 3129 3129 3130 3132 3133 3135 3135 3134 3134 3132 3132 3132 3132
3060 3062 3064 3066 3069 3071 3074 3076 3080 3083 3085 3087 3090 3090 3092 3095 3097 3097 3093 3093 3094 3090 3089 3094 3095 3097 3101 3103 3107 3109 3111 3112 3113 3116 3118 3120 3120 3121 3123 3124 3126 3129 3129 3128 3129 3130 3131 3132 3134 3135 3136 3137 3139 3141 3143 3144 3146 3147 3148 3150 3152 3153 3153 3151 3149 3150 3148 3140 3136 3138 3141 3140 3127 3116 3120 3125 3125 3128 3129 3130 3132 3132 3132 3131 3130 3129 3129 3129
3057 3059 3061 3063 3066 3068 3070 3073 3076 3079 3081 3083 3084 3083 3085 3086 3086 3084 3084 3087 3089 3085 3086 3089 3090 3094 3099 3101 3103 3106 3108 3110 3111 3113 3115 3116 3117 3118 3120 3121 3122 3124 3123 3123 3126 3127 3127 3128 3129 3130 3130 3132 3134 3136 3138 3139 3141 3143 3144 3146 3147 3151 3152 3149 3147 3147 3143 3136 3134 3136 3139 3132 3118 3114 3117 3119 3121 3125 3126 3127 3128 3128 3129 3128 3127 3127 3126 3125
3054 3056 3058 3060 3063 3065 3067 3069 3072 3075 3077 3079 3079 3078 3080 3080 3077 3077 3080 3082 3084 3084 3084 3085 3088 3093 3095 3096 3099 3101 3104 3106 3107 3109 3111 3112 3113 3114 3115 3116 3118 3119 3120 3122 3123 3123 3124 3122 3122 3124 3125 3127 3129 3131 3133 3135 3138 3139 3140 3142 3142 3142 3142 3140 3141 3141 3136 3133 3133 3134 3132 3122 3113 3113 3114 3115 3119 3122 3122 3124 3124 3124 3125 3125 3125 3124 3123 3122
3050 3052 3054 3056 3058 3061 3063 3066 3068 3071 3074 3074 3073 3072 3073 3073 3072 3073 3076 3078 3081 3083 3082 3084 3088 3091 3092 3093 3095 3098 3100 3102 3103 3105 3106 3107 3108 3108 3110 3111 3113 3115 3117 3118 3118 3119 3119 3116 3117 3120 3122 3123 3126 3127 3130 3133 3135 3136 3137 3138 3135 3133 3134 3136 3137 3135 3134 3135 3131 3127 3121 3112 3109 3109 3110 3114 3116 3117 3119 3119 3120 3121 3122 3122 3122 3121 3120 3119
3047 3048 3051 3052 3054 3057 3059 3062 3065 3068 3070 3069 3068 3066 3065 3067 3068 3070 3072 3075 3078 3080 3081 3083 3086 3088 3089 3090 3092 3094 3096 3098 3100 3101 3102 3103 3104 3104 3106 3107 3108 3109 3110 3112 3112 3113 3114 3113 3114 3117 3118 3120 3122 3124 3126 3128 3130 3131 3131 3129 3128 3129 3132 3135 3135 3132 3135 3135 3126 3118 3112 3106 3106 3104 3105 3110 3111 3111 3115 3115 3116 3118 3118 3119 3119 3118 3117 3116
3042 3044 3046 3048 3051 3053 3055 3059 3062 3064 3066 3065 3062 3061 3062 3064 3066 3069 3071 3073 3076 3078 3079 3080 3082 3085 3085 3086 3088 3090 3093 3095 3096 3098 3099 3100 3099 3099 3101 3102 3104 3105 3106 3108 3109 3109 3111 3110 3110 3112 3114 3116 3119 3120 3122 3123 3124 3125 3123 3123 3125 3129 3130 3132 3133 3132 3134 3133 3122 3112 3106 3103 3104 3100 3100 3105 3107 3107 3110 3111 3113 3114 3114 3116 3116 3115 3115 3114
3037 3040 3042 3045 3048 3050 3052 3055 3057 3060 3062 3061 3058 3059 3060 3062 3065 3067 3069 3070 3073 3076 3076 3077 3079 3081 3082 3083 3085 3087 3090 3091 3093 3094 3095 3096 3095 3094 3096 3098 3100 3102 3103 3106 3107 3107 3109 3109 3108 3109 3111 3113 3115 3116 3117 3118 3119 3119 3119 3121 3124 3126 3126 3127 3129 3128 3128 3128 3119 3109 3103 3099 3098 3096 3096 3101 3103 3104 3106 3107 3108 3110 3111 3112 3112 3111 3111 3111
3033 3035 3037 3041 3045 3047 3049 3051 3054 3056 3057 3056 3056 3056 3056 3057 3061 3064 3066 3069 3071 3073 3073 3074 3077 3079 3079 3081 3082 3084 3087 3087 3088 3090 3090 3091 3090 3089 3092 3095 3097 3099 3101 3103 3104 3104 3106 3107 3106 3105 3107 3109 3111 3111 3110 3110 3112 3115 3117 3119 3120 3121 3121 3120 3121 3119 3119 3121 3116 3109 3103 3093 3088 3091 3094 3096 3098 3100 3101 3103 3105 3106 3108 3109 3108 3108 3109 3109
3029 3031 3032 3036 3041 3043 3045 3048 3050 3051 3050 3050 3052 3052 3052 3053 3056 3060 3064 3066 3067 3069 3071 3072 3074 3076 3076 3078 3080 3082 3084 3084 3085 3086 3086 3087 3087 3086 3089 3092 3094 3096 3098 3100 3100 3102 3104 3104 3102 3102 3103 3104 3104 3103 3103 3104 3107 3110 3112 3113 3114 3115 3116 3116 3115 3114 3113 3115 3115 3113 3104 3087 3082 3089 3091 3092 3095 3096 3098 3100 3101 3103 3104 3104 3105 3105 3106 3106
3024 3026 3027 3031 3035 3038 3041 3043 3043 3044 3045 3045 3046 3048 3049 3050 3051 3055 3059 3062 3064 3065 3067 3069 3071 3072 3073 3075 3076 3078 3080 3080 3081 3082 3083 3083 3083 3083 3085 3088 3091 3093 3095 3096 3096 3097 3099 3099 3098 3098 3097 3097 3096 3098 3101 3102 3103 3104 3105 3106 3106 3107 3109 3110 3110 3109 3110 3111 3111 3111 3103 3083 3078 3086 3087 3088 3092 3092 3095 3096 3097 3099 3099 3100 3101 3101 3102 3102
3019 3021 3023 3026 3030 3034 3036 3037 3038 3040 3039 3039 3042 3044 3044 3045 3047 3051 3054 3058 3061 3062 3064 3065 3066 3068 3069 3071 3073 3075 3076 3077 3078 3079 3079 3080 3080 3081 3083 3086 3088 3089 3090 3091 3091 3093 3094 3095 3095 3093 3092 3092 3094 3097 3099 3099 3100 3101 3101 3101 3101 3101 3102 3103 3103 3104 3106 3107 3105 3107 3101 3079 3074 3083 3083 3084 3088 3089 3091 3093 3093 3095 3096 3096 3097 3098 3098 3098
3014 3016 3019 3022 3026 3030 3031 3031 3033 3034 3034 3035 3039 3040 3040 3041 3044 3046 3049 3053 3056 3058 3059 3060 3061 3064 3065 3067 3069 3070 3072 3073 3074 3075 3076 3077 3077 3079 3081 3083 3084 3086 3086 3087 3088 3090 3091 3091 3091 3091 3090 3091 3092 3094 3095 3095 3096 3096 3094 3095 3097 3098 3098 3099 3101 3101 3102 3102 3100 3104 3097 3075 3071 3081 3081 3081 3084 3085 3088 3090 3091 3092 3093 3093 3094 3094 3095 3095
3010 3012 3014 3018 3023 3025 3025 3025 3027 3028 3029 3032 3034 3035 3037 3038 3039 3041 3044 3046 3050 3053 3054 3055 3057 3060 3062 3064 3065 3066 3068 3069 3069 3070 3073 3073 3073 3075 3078 3079 3081 3082 3083 3083 3084 3086 3086 3086 3088 3089 3090 3090 3089 3089 3088 3088 3089 3088 3089 3092 3093 3094 3097 3098 3100 3100 3099 3097 3095 3096 3088 3071 3070 3078 3078 3079 3082 3082 3085 3087 3087 3089 3090 3090 3091 3091 3093 3093
3006 3007 3009 3013 3019 3020 3018 3019 3022 3023 3025 3028 3029 3030 3033 3034 3034 3036 3040 3042 3045 3048 3050 3052 3055 3057 3059 3061 3062 3062 3064 3065 3066 3067 3068 3069 3069 3071 3073 3075 3077 3078 3080 3081 3082 3082 3081 3080 3083 3085 3086 3084 3081 3079 3078 3079 3083 3084 3085 3087 3088 3090 3093 3093 3095 3096 3093 3089 3087 3085 3079 3070 3070 3075 3075 3076 3079 3080 3082 3084 3085 3086 3087 3088 3089 3089 3089 3089
3001 3002 3004 3008 3013 3014 3014 3015 3017 3018 3020 3023 3024 3026 3029 3029 3030 3033 3036 3038 3040 3043 3046 3048 3051 3054 3055 3056 3058 3058 3059 3061 3062 3063 3064 3065 3065 3066 3069 3070 3072 3074 3076 3077 3078 3079 3078 3077 3077 3077 3077 3076 3073 3072 3075 3077 3079 3080 3080 3081 3083 3086 3087 3089 3091 3089 3084 3082 3080 3077 3074 3068 3067 3071 3073 3074 3076 3079 3080 3081 3082 3083 3084 3085 3085 3085 3084 3085
2995 2997 2999 3003 3006 3008 3009 3011 3012 3013 3016 3018 3019 3021 3023 3026 3028 3030 3031 3034 3037 3040 3042 3043 3046 3048 3049 3051 3053 3053 3054 3057 3058 3059 3059 3060 3062 3064 3065 3066 3068 3071 3072 3072 3072 3073 3073 3072 3072 3072 3071 3071 3070 3071 3074 3075 3075 3076 3076 3078 3079 3080 3082 3083 3082 3078 3078 3079 3072 3068 3071 3067 3062 3066 3071 3071 3073 3076 3076 3077 3078 3079 3080 3080 3081 3080 3080 3080
2990 2992 2994 2998 3000 3002 3003 3006 3009 3010 3012 3014 3016 3017 3019 3021 3024 3025 3027 3030 3033 3035 3037 3038 3039 3041 3043 3046 3048 3048 3050 3053 3054 3054 3055 3056 3058 3060 3060 3061 3063 3066 3067 3067 3067 3068 3068 3066 3067 3068 3067 3067 3068 3068 3070 3071 3070 3071 3072 3073 3075 3076 3076 3075 3072 3071 3072 3070 3064 3064 3069 3065 3058 3060 3066 3069 3070 3071 3071 3072 3073 3074 3075 3075 3076 3075 3075 3076
2985 2987 2990 2992 2994 2996 2999 3002 3005 3007 3008 3011 3012 3013 3015 3017 3019 3021 3024 3026 3027 3029 3032 3032 3033 3035 3038 3041 3043 3043 3045 3047 3048 3049 3050 3052 3053 3055 3056 3057 3058 3060 3062 3063 3063 3064 3063 3061 3062 3064 3063 3064 3064 3064 3065 3065 3065 3065 3066 3068 3070 3071 3070 3067 3064 3064 3064 3064 3064 3064 3063 3059 3054 3055 3060 3064 3066 3066 3067 3068 3069 3069 3070 3071 3072 3071 3070 3071
2980 2982 2985 2986 2988 2992 2995 2997 3000 3002 3004 3006 3006 3008 3011 3013 3014 3017 3020 3021 3021 3023 3026 3026 3028 3031 3034 3036 3038 3037 3039 3042 3043 3044 3047 3048 3049 3050 3052 3052 3054 3056 3058 3058 3059 3059 3057 3056 3058 3060 3060 3059 3058 3058 3059 3060 3060 3060 3061 3064 3066 3065 3062 3057 3055 3058 3060 3060 3060 3060 3058 3052 3046 3048 3055 3058 3059 3060 3060 3061 3063 3065 3066 3067 3066 3065 3065 3066
2976 2978 2980 2982 2984 2987 2990 2993 2996 2997 2998 2999 3001 3004 3007 3008 3010 3014 3015 3016 3018 3019 3021 3023 3026 3029 3030 3031 3031 3031 3034 3037 3037 3040 3044 3045 3045 3046 3047 3048 3051 3053 3053 3053 3054 3054 3054 3054 3055 3057 3055 3053 3051 3051 3053 3055 3056 3056 3056 3057 3056 3052 3048 3047 3050 3053 3053 3052 3053 3057 3053 3042 3036 3043 3050 3051 3052 3053 3053 3055 3058 3060 3061 3061 3060 3059 3060 3061
2970 2972 2975 2977 2979 2981 2984 2988 2991 2991 2992 2994 2997 2999 3001 3003 3006 3009 3009 3011 3014 3016 3018 3020 3022 3024 3024 3024 3025 3027 3030 3033 3034 3037 3040 3041 3041 3042 3042 3044 3045 3047 3048 3049 3049 3049 3051 3051 3051 3052 3050 3046 3045 3046 3048 3052 3052 3048 3046 3044 3040 3038 3041 3045 3047 3045 3043 3045 3048 3047 3040 3033 3034 3041 3044 3044 3047 3048 3048 3050 3053 3054 3055 3054 3053 3052 3053 3054